| time (UTC) | temp F | wind direction | speed knots | gust knots | rain 1hr in | rain 24hr in | rain mn in | humidity % | barometer mb |
| 20260506024517 | 49 | 96 | 1.7 | 7.8 | 0.00 | 0.00 | 0.00 | 82 | 1011.3 |
| 20260506023010 | 49 | 26 | 1.7 | 7.8 | 0.00 | 0.00 | 0.00 | 82 | 1010.9 |
| 20260506021509 | 50 | 42 | 3.5 | 9.6 | 0.00 | 0.00 | 0.00 | 82 | 1011.1 |
| 20260506020003 | 50 | 34 | 1.7 | 7.0 | 0.00 | 0.00 | 0.00 | 81 | 1010.8 |
| 20260506014501 | 50 | 34 | 2.6 | 8.7 | 0.00 | 0.00 | 0.00 | 81 | 1010.5 |
| 20260506013059 | 51 | 24 | 2.6 | 9.6 | 0.00 | 0.00 | 0.00 | 79 | 1010.6 |
| 20260506011606 | 51 | 57 | 1.7 | 7.0 | 0.00 | 0.00 | 0.00 | 77 | 1010.3 |
| 20260506010056 | 51 | 30 | 1.7 | 7.8 | 0.00 | 0.00 | 0.00 | 76 | 1009.9 |
| 20260506004550 | 52 | 65 | 2.6 | 9.6 | 0.00 | 0.00 | 0.00 | 76 | 1009.5 |
| 20260506003047 | 52 | 47 | 1.7 | 5.2 | 0.00 | 0.00 | 0.00 | 77 | 1009.0 |
| 20260506001546 | 52 | 140 | 2.6 | 7.0 | 0.00 | 0.00 | 0.00 | 76 | 1009.1 |
| 20260506000044 | 52 | 349 | 1.7 | 9.6 | 0.00 | 0.00 | 0.00 | 76 | 1008.9 |
| 20260505234547 | 53 | 195 | 1.7 | 7.0 | 0.00 | 0.00 | 0.00 | 76 | 1008.9 |
| 20260505233042 | 53 | 64 | 1.7 | 9.6 | 0.00 | 0.00 | 0.00 | 76 | 1008.9 |
| 20260505231546 | 53 | 360 | 2.6 | 9.6 | 0.00 | 0.00 | 0.00 | 76 | 1009.0 |
| 20260505230035 | 54 | 36 | 1.7 | 4.3 | 0.00 | 0.00 | 0.00 | 76 | 1008.7 |
| 20260505224534 | 54 | 32 | 2.6 | 9.6 | 0.00 | 0.00 | 0.00 | 76 | 1008.5 |
| 20260505223036 | 54 | 36 | 1.7 | 5.2 | 0.00 | 0.00 | 0.00 | 76 | 1008.5 |
| 20260505221531 | 54 | 43 | 1.7 | 7.8 | 0.00 | 0.00 | 0.00 | 77 | 1008.4 |
| 20260505220035 | 55 | 62 | 2.6 | 8.7 | 0.00 | 0.00 | 0.00 | 77 | 1007.9 |
| 20260505214535 | 55 | 18 | 3.5 | 8.7 | 0.00 | 0.00 | 0.00 | 77 | 1007.3 |
| 20260505213026 | 55 | 22 | 1.7 | 7.0 | 0.00 | 0.00 | 0.00 | 78 | 1007.6 |
| 20260505211525 | 55 | 80 | 0.9 | 8.7 | 0.00 | 0.00 | 0.00 | 80 | 1007.8 |
| 20260505210026 | 55 | 9 | 2.6 | 7.8 | 0.00 | 0.00 | 0.00 | 80 | 1007.2 |
| 20260505204518 | 55 | 18 | 2.6 | 7.8 | 0.00 | 0.00 | 0.00 | 81 | 1007.2 |
| 20260505203016 | 56 | 40 | 2.6 | 8.7 | 0.00 | 0.00 | 0.00 | 80 | 1006.8 |
| 20260505201513 | 56 | 38 | 1.7 | 9.6 | 0.00 | 0.00 | 0.00 | 81 | 1007.1 |
| 20260505200019 | 57 | 28 | 1.7 | 7.8 | 0.00 | 0.00 | 0.00 | 80 | 1006.8 |
| 20260505194509 | 57 | 25 | 2.6 | 8.7 | 0.00 | 0.00 | 0.00 | 80 | 1006.6 |
| 20260505193008 | 57 | 38 | 1.7 | 7.0 | 0.00 | 0.00 | 0.00 | 81 | 1006.4 |
| 20260505191506 | 58 | 360 | 3.5 | 7.8 | 0.00 | 0.00 | 0.00 | 80 | 1006.5 |
| 20260505190004 | 58 | 38 | 2.6 | 11.3 | 0.00 | 0.00 | 0.00 | 81 | 1005.4 |
| 20260505184502 | 58 | 16 | 2.6 | 10.4 | 0.00 | 0.00 | 0.00 | 80 | 1006.2 |
| 20260505183059 | 58 | 33 | 1.7 | 8.7 | 0.00 | 0.00 | 0.00 | 81 | 1005.8 |
| 20260505181559 | 59 | 10 | 2.6 | 8.7 | 0.00 | 0.00 | 0.00 | 81 | 1005.7 |
| 20260505180053 | 59 | 55 | 3.5 | 11.3 | 0.00 | 0.00 | 0.00 | 81 | 1004.9 |
| 20260505174555 | 60 | 76 | 2.6 | 8.7 | 0.00 | 0.00 | 0.00 | 81 | 1004.7 |
| 20260505173047 | 60 | 355 | 3.5 | 13.9 | 0.00 | 0.00 | 0.00 | 80 | 1004.7 |
| 20260505171544 | 63 | 39 | 3.5 | 16.5 | 0.00 | 0.00 | 0.00 | 78 | 1004.4 |
| 20260505170040 | 65 | 360 | 2.6 | 10.4 | 0.00 | 0.00 | 0.00 | 78 | 1003.6 |
| 20260505164535 | 68 | 302 | 2.6 | 12.2 | 0.00 | 0.00 | 0.00 | 76 | 1003.2 |
| 20260505163031 | 73 | 197 | 1.7 | 7.0 | 0.00 | 0.00 | 0.00 | 70 | 1002.7 |
| 20260505161529 | 75 | 360 | 0.0 | 0.9 | 0.00 | 0.00 | 0.00 | 74 | 1002.0 |
| 20260505153020 | 74 | 163 | 0.0 | 1.7 | 0.00 | 0.00 | 0.00 | 75 | 1001.3 |
| 20260505151520 | 74 | 163 | 0.0 | 0.0 | 0.00 | 0.00 | 0.00 | 75 | 1001.2 |
| 20260505124501 | 70 | 173 | 0.0 | 2.6 | 0.00 | 0.00 | 0.00 | 82 | 999.7 |
| 20260505123106 | 69 | 360 | 0.0 | 3.5 | 0.00 | 0.00 | 0.00 | 82 | 999.7 |
| 20260505121557 | 69 | 360 | 1.7 | 3.5 | 0.00 | 0.00 | 0.00 | 82 | 999.1 |
| 20260505120109 | 69 | 360 | 1.7 | 4.3 | 0.00 | 0.00 | 0.00 | 82 | 999.1 |
| 20260505114553 | 70 | 360 | 1.7 | 4.3 | 0.00 | 0.00 | 0.00 | 81 | 998.7 |
| 20260505113055 | 70 | 172 | 0.9 | 4.3 | 0.00 | 0.00 | 0.00 | 80 | 998.7 |
| 20260505111551 | 70 | 178 | 0.9 | 7.0 | 0.00 | 0.00 | 0.00 | 80 | 998.4 |
| 20260505110106 | 70 | 170 | 1.7 | 6.1 | 0.00 | 0.00 | 0.00 | 80 | 998.5 |
| 20260505101547 | 71 | 360 | 1.7 | 6.1 | 0.00 | 0.00 | 0.00 | 79 | 998.4 |
| 20260505100048 | 71 | 180 | 2.6 | 7.0 | 0.00 | 0.00 | 0.00 | 79 | 998.4 |
| 20260505094544 | 71 | 178 | 1.7 | 7.8 | 0.00 | 0.00 | 0.00 | 78 | 998.3 |
| 20260505093043 | 71 | 360 | 2.6 | 5.2 | 0.00 | 0.00 | 0.00 | 78 | 998.5 |
| 20260505091541 | 71 | 360 | 3.5 | 7.0 | 0.00 | 0.00 | 0.00 | 78 | 998.4 |
| 20260505090041 | 71 | 360 | 2.6 | 8.7 | 0.00 | 0.00 | 0.00 | 78 | 998.7 |
| 20260505084541 | 71 | 360 | 2.6 | 5.2 | 0.00 | 0.00 | 0.00 | 78 | 998.6 |
| 20260505083038 | 71 | 360 | 2.6 | 7.8 | 0.00 | 0.00 | 0.00 | 78 | 998.7 |
| 20260505081544 | 71 | 360 | 1.7 | 9.6 | 0.00 | 0.00 | 0.00 | 78 | 999.1 |
| 20260505080039 | 72 | 360 | 2.6 | 7.0 | 0.00 | 0.00 | 0.00 | 77 | 999.2 |
| 20260505074536 | 71 | 360 | 3.5 | 8.7 | 0.00 | 0.00 | 0.00 | 78 | 999.1 |
| 20260505073044 | 71 | 360 | 2.6 | 7.0 | 0.00 | 0.00 | 0.00 | 78 | 999.3 |
| 20260505071547 | 71 | 360 | 4.3 | 11.3 | 0.00 | 0.00 | 0.00 | 78 | 999.5 |
| 20260505070032 | 71 | 360 | 3.5 | 7.8 | 0.00 | 0.00 | 0.00 | 78 | 999.8 |
| 20260505064531 | 71 | 360 | 4.3 | 10.4 | 0.00 | 0.00 | 0.00 | 78 | 999.9 |
| 20260505063030 | 71 | 360 | 4.3 | 11.3 | 0.00 | 0.00 | 0.00 | 78 | 1000.0 |
| 20260505061532 | 71 | 360 | 3.5 | 8.7 | 0.00 | 0.00 | 0.00 | 78 | 1000.4 |
| 20260505060024 | 71 | 360 | 3.5 | 9.6 | 0.00 | 0.00 | 0.00 | 77 | 1000.6 |
| 20260505054532 | 71 | 360 | 2.6 | 7.8 | 0.00 | 0.00 | 0.00 | 77 | 1000.7 |
| 20260505053027 | 72 | 360 | 2.6 | 12.2 | 0.00 | 0.00 | 0.00 | 76 | 1000.8 |
| 20260505051532 | 72 | 360 | 2.6 | 7.8 | 0.00 | 0.00 | 0.00 | 76 | 1000.8 |
| 20260505041517 | 72 | 360 | 3.5 | 11.3 | 0.00 | 0.00 | 0.00 | 74 | 1001.2 |
| 20260505040023 | 73 | 360 | 3.5 | 10.4 | 0.00 | 0.00 | 0.00 | 74 | 1001.4 |
| 20260505034513 | 73 | 360 | 3.5 | 9.6 | 0.00 | 0.00 | 0.00 | 73 | 1001.3 |
| 20260505033013 | 74 | 360 | 3.5 | 11.3 | 0.00 | 0.00 | 0.00 | 72 | 1001.0 |
| 20260505031512 | 74 | 360 | 4.3 | 9.6 | 0.00 | 0.00 | 0.00 | 72 | 1001.0 |
| 20260505030023 | 74 | 360 | 5.2 | 11.3 | 0.00 | 0.00 | 0.00 | 71 | 1001.3 |